Total_Precipitation_Accumulation
1.58 1.59 1.54 1.57 1.48 1.29 1.19 1.16 1.19 1.03 0.93 0.75 0.52 0.37 0.35 0.31 0.31 0.28 0.24 0.17 0.14 0.13 0.10 0.06 0.05 0.05 0.06 0.08 0.08 0.09 0.14 0.24 0.56 0.87 0.74 0.61 0.57 0.63
1.37 1.39 1.43 1.46 1.50 1.45 1.37 1.28 1.23 1.13 1.03 0.86 0.62 0.41 0.40 0.41 0.38 0.30 0.29 0.28 0.20 0.15 0.12 0.10 0.08 0.06 0.05 0.05 0.05 0.03 0.03 0.06 0.27 0.75 0.86 0.74 0.73 0.83
1.20 1.20 1.30 1.33 1.46 1.51 1.44 1.33 1.26 1.17 1.05 0.98 0.74 0.49 0.41 0.42 0.43 0.37 0.32 0.28 0.25 0.21 0.16 0.13 0.12 0.11 0.10 0.07 0.06 0.04 0.03 0.02 0.05 0.19 0.37 0.46 0.63 0.84
1.02 1.00 1.08 1.14 1.26 1.38 1.45 1.35 1.28 1.19 1.16 1.12 0.92 0.68 0.55 0.48 0.43 0.38 0.32 0.30 0.30 0.30 0.24 0.20 0.18 0.17 0.16 0.14 0.11 0.08 0.06 0.03 0.03 0.05 0.13 0.24 0.32 0.45
0.81 0.82 0.87 0.92 1.00 1.12 1.24 1.32 1.28 1.20 1.24 1.23 1.06 0.82 0.64 0.53 0.50 0.44 0.36 0.36 0.32 0.29 0.26 0.24 0.21 0.19 0.17 0.16 0.15 0.13 0.09 0.07 0.05 0.05 0.06 0.10 0.16 0.20
0.59 0.57 0.62 0.66 0.70 0.83 0.97 1.11 1.22 1.26 1.29 1.31 1.20 0.95 0.74 0.60 0.54 0.54 0.54 0.47 0.42 0.33 0.29 0.28 0.28 0.25 0.19 0.16 0.13 0.10 0.08 0.08 0.06 0.05 0.05 0.05 0.06 0.08
0.61 0.53 0.48 0.47 0.52 0.59 0.71 0.92 1.05 1.17 1.25 1.29 1.24 1.09 0.90 0.77 0.63 0.58 0.59 0.60 0.60 0.50 0.45 0.38 0.35 0.29 0.24 0.18 0.13 0.10 0.08 0.08 0.07 0.06 0.05 0.05 0.05 0.06
0.63 0.64 0.62 0.55 0.44 0.37 0.39 0.51 0.69 0.88 1.04 1.12 1.16 1.07 0.91 0.81 0.75 0.67 0.58 0.54 0.57 0.56 0.57 0.58 0.51 0.43 0.38 0.32 0.27 0.22 0.17 0.14 0.12 0.11 0.10 0.10 0.10 0.09
0.58 0.60 0.65 0.64 0.66 0.54 0.44 0.39 0.41 0.52 0.68 0.84 0.89 0.88 0.93 0.83 0.70 0.58 0.51 0.47 0.45 0.44 0.46 0.49 0.48 0.45 0.41 0.40 0.40 0.36 0.33 0.28 0.24 0.21 0.18 0.15 0.13 0.13
0.62 0.62 0.68 0.71 0.69 0.77 0.73 0.64 0.56 0.55 0.63 0.51 0.53 0.72 0.77 0.74 0.66 0.59 0.55 0.49 0.41 0.35 0.35 0.40 0.40 0.38 0.32 0.30 0.31 0.29 0.28 0.26 0.24 0.23 0.23 0.22 0.21 0.21
0.64 0.61 0.66 0.66 0.82 0.87 0.76 0.71 0.66 0.61 0.78 0.78 0.72 0.66 0.59 0.53 0.52 0.56 0.55 0.50 0.45 0.38 0.33 0.31 0.33 0.37 0.37 0.32 0.30 0.28 0.24 0.24 0.23 0.23 0.24 0.25 0.24 0.22
0.70 0.62 0.80 0.76 0.76 0.69 0.56 0.66 0.71 0.66 0.61 0.61 0.61 0.57 0.49 0.43 0.43 0.45 0.53 0.52 0.47 0.45 0.38 0.33 0.34 0.36 0.36 0.33 0.30 0.29 0.27 0.25 0.24 0.24 0.25 0.26 0.24 0.20
0.78 0.76 0.72 0.78 0.60 0.55 0.54 0.57 0.70 0.69 0.66 0.70 0.67 0.59 0.47 0.40 0.38 0.39 0.43 0.45 0.45 0.46 0.37 0.30 0.32 0.32 0.29 0.26 0.25 0.24 0.22 0.20 0.17 0.16 0.16 0.18 0.19 0.17
0.72 0.64 0.59 0.61 0.45 0.41 0.39 0.46 0.55 0.56 0.56 0.63 0.65 0.59 0.48 0.40 0.37 0.35 0.34 0.34 0.33 0.33 0.33 0.29 0.29 0.28 0.26 0.20 0.19 0.19 0.17 0.16 0.15 0.13 0.11 0.13 0.13 0.15
0.51 0.50 0.44 0.39 0.35 0.30 0.30 0.37 0.39 0.47 0.58 0.63 0.57 0.51 0.47 0.43 0.40 0.37 0.30 0.26 0.24 0.22 0.22 0.24 0.29 0.32 0.31 0.24 0.19 0.17 0.16 0.15 0.13 0.13 0.13 0.12 0.11 0.10
0.32 0.25 0.25 0.26 0.29 0.31 0.30 0.31 0.34 0.49 0.64 0.64 0.56 0.51 0.51 0.49 0.47 0.43 0.41 0.37 0.34 0.32 0.29 0.28 0.31 0.36 0.37 0.33 0.27 0.23 0.22 0.21 0.19 0.18 0.17 0.16 0.14 0.12
0.47 0.36 0.28 0.26 0.26 0.29 0.31 0.35 0.45 0.55 0.63 0.56 0.53 0.48 0.47 0.50 0.50 0.47 0.46 0.44 0.40 0.39 0.42 0.43 0.41 0.40 0.40 0.40 0.40 0.38 0.36 0.34 0.32 0.31 0.25 0.20 0.17 0.17
0.48 0.47 0.45 0.45 0.44 0.41 0.37 0.35 0.38 0.44 0.49 0.52 0.53 0.49 0.43 0.43 0.44 0.42 0.41 0.39 0.38 0.37 0.37 0.40 0.44 0.47 0.46 0.44 0.38 0.37 0.42 0.44 0.44 0.41 0.34 0.26 0.20 0.23
0.40 0.42 0.43 0.43 0.41 0.37 0.33 0.30 0.27 0.28 0.35 0.42 0.50 0.52 0.51 0.48 0.45 0.40 0.34 0.31 0.30 0.30 0.28 0.27 0.29 0.33 0.37 0.39 0.39 0.32 0.31 0.37 0.38 0.35 0.32 0.29 0.25 0.27
0.26 0.29 0.29 0.29 0.27 0.26 0.23 0.20 0.19 0.20 0.22 0.25 0.32 0.40 0.50 0.58 0.57 0.51 0.46 0.40 0.35 0.31 0.29 0.25 0.21 0.20 0.22 0.24 0.26 0.26 0.25 0.27 0.29 0.27 0.25 0.24 0.22 0.22
0.10 0.12 0.12 0.12 0.14 0.14 0.13 0.12 0.13 0.14 0.16 0.18 0.20 0.23 0.29 0.38 0.47 0.52 0.54 0.57 0.54 0.49 0.44 0.38 0.31 0.31 0.25 0.24 0.22 0.18 0.18 0.19 0.17 0.15 0.15 0.16 0.16 0.16
0.04 0.05 0.06 0.05 0.07 0.08 0.07 0.06 0.06 0.07 0.10 0.11 0.12 0.14 0.17 0.21 0.27 0.35 0.39 0.42 0.44 0.46 0.49 0.49 0.47 0.45 0.40 0.34 0.29 0.23 0.19 0.18 0.20 0.21 0.17 0.15 0.14 0.14
0.03 0.03 0.03 0.04 0.05 0.06 0.11 0.12 0.09 0.07 0.08 0.09 0.10 0.10 0.11 0.13 0.16 0.21 0.25 0.28 0.31 0.34 0.37 0.39 0.38 0.36 0.34 0.34 0.34 0.33 0.29 0.24 0.22 0.23 0.23 0.28 0.26 0.19